| time (UTC) | temp C | wind direction | speed KPH | gust KPH | rain 1hr cm | rain 24hr cm | rain mn cm | humidity % | barometer mb |
| 20260503211505 | 4 | 54 | 1.6 | 3.2 | 0.00 | 0.00 | 0.00 | 87 | 1008.0 |
| 20260503210504 | 4 | 54 | 1.6 | 3.2 | 0.00 | 0.00 | 0.00 | 83 | 1008.0 |
| 20260503205504 | 3 | 356 | 1.6 | 3.2 | 0.00 | 0.00 | 0.00 | 85 | 1008.0 |
| 20260503204503 | 4 | 296 | 1.6 | 3.2 | 0.00 | 0.00 | 0.00 | 83 | 1008.0 |
| 20260503203503 | 5 | 298 | 1.6 | 3.2 | 0.00 | 0.00 | 0.00 | 84 | 1008.0 |
| 20260503202544 | 5 | 243 | 1.6 | 1.6 | 0.00 | 0.00 | 0.00 | 85 | 1008.0 |
| 20260503201504 | 5 | 244 | 1.6 | 3.2 | 0.00 | 0.00 | 0.00 | 83 | 1008.0 |
| 20260503200503 | 6 | 244 | 1.6 | 3.2 | 0.00 | 0.00 | 0.00 | 78 | 1008.0 |
| 20260503195503 | 6 | 243 | 1.6 | 1.6 | 0.00 | 0.00 | 0.00 | 74 | 1008.0 |
| 20260503194505 | 6 | 243 | 1.6 | 1.6 | 0.00 | 0.00 | 0.00 | 72 | 1008.0 |
| 20260503193504 | 6 | 243 | 1.6 | 3.2 | 0.00 | 0.00 | 0.00 | 72 | 1007.9 |
| 20260503192505 | 7 | 243 | 1.6 | 3.2 | 0.00 | 0.00 | 0.00 | 70 | 1007.9 |
| 20260503191526 | 7 | 243 | 1.6 | 1.6 | 0.00 | 0.00 | 0.00 | 68 | 1008.0 |
| 20260503190503 | 7 | 243 | 1.6 | 3.2 | 0.00 | 0.00 | 0.00 | 67 | 1007.9 |
| 20260503185503 | 8 | 301 | 1.6 | 1.6 | 0.00 | 0.00 | 0.00 | 64 | 1007.9 |
| 20260503184504 | 8 | 301 | 1.6 | 1.6 | 0.00 | 0.00 | 0.00 | 64 | 1007.8 |
| 20260503183504 | 8 | 301 | 1.6 | 1.6 | 0.00 | 0.00 | 0.00 | 63 | 1007.8 |
| 20260503182524 | 8 | 301 | 1.6 | 1.6 | 0.00 | 0.00 | 0.00 | 62 | 1007.8 |
| 20260503181505 | 8 | 237 | 1.6 | 1.6 | 0.00 | 0.00 | 0.00 | 62 | 1007.7 |
| 20260503180505 | 9 | 236 | 1.6 | 1.6 | 0.00 | 0.00 | 0.00 | 62 | 1007.6 |
| 20260503175505 | 10 | 247 | 1.6 | 4.8 | 0.00 | 0.00 | 0.00 | 60 | 1007.6 |
| 20260503174504 | 10 | 283 | 3.2 | 4.8 | 0.00 | 0.00 | 0.00 | 58 | 1007.5 |
| 20260503173523 | 10 | 281 | 3.2 | 9.7 | 0.00 | 0.00 | 0.00 | 63 | 1007.4 |
| 20260503172523 | 11 | 220 | 1.6 | 3.2 | 0.00 | 0.00 | 0.00 | 61 | 1007.3 |
| 20260503171504 | 11 | 212 | 1.6 | 3.2 | 0.00 | 0.00 | 0.00 | 63 | 1007.3 |
| 20260503170504 | 11 | 212 | 3.2 | 4.8 | 0.00 | 0.00 | 0.00 | 66 | 1007.3 |
| 20260503150505 | 11 | 279 | 6.4 | 11.3 | 0.00 | 0.00 | 0.00 | 62 | 1007.5 |
| 20260503130504 | 13 | 214 | 4.8 | 8.0 | 0.00 | 0.00 | 0.00 | 63 | 1007.5 |
| 20260503110505 | 12 | 245 | 4.8 | 11.3 | 0.00 | 0.00 | 0.00 | 63 | 1007.1 |
| 20260503081503 | 10 | 323 | 4.8 | 9.7 | 0.00 | 0.00 | 0.00 | 87 | 1006.3 |
| 20260503080503 | 9 | 355 | 3.2 | 4.8 | 0.00 | 0.00 | 0.00 | 87 | 1006.2 |
| 20260503072504 | 9 | 346 | 3.2 | 4.8 | 0.00 | 0.00 | 0.00 | 90 | 1006.0 |
| 20260503071503 | 9 | 279 | 3.2 | 4.8 | 0.00 | 0.00 | 0.00 | 91 | 1006.0 |
| 20260503070525 | 8 | 270 | 3.2 | 6.4 | 0.00 | 0.00 | 0.00 | 90 | 1005.9 |
| 20260503054503 | 8 | 345 | 1.6 | 3.2 | 0.00 | 0.00 | 0.00 | 84 | 1005.3 |
| 20260503053503 | 8 | 46 | 1.6 | 3.2 | 0.00 | 0.00 | 0.00 | 86 | 1005.2 |
| 20260503052505 | 8 | 46 | 3.2 | 6.4 | 0.00 | 0.00 | 0.00 | 86 | 1005.1 |
| 20260503051504 | 8 | 31 | 3.2 | 6.4 | 0.00 | 0.00 | 0.00 | 86 | 1005.1 |
| 20260503050504 | 8 | 9 | 3.2 | 9.7 | 0.00 | 0.00 | 0.00 | 87 | 1005.2 |
| 20260503045503 | 8 | 9 | 3.2 | 6.4 | 0.00 | 0.00 | 0.00 | 86 | 1005.3 |
| 20260503044503 | 8 | 6 | 3.2 | 8.0 | 0.00 | 0.00 | 0.00 | 86 | 1005.3 |
| 20260503043504 | 8 | 1 | 3.2 | 8.0 | 0.00 | 0.00 | 0.00 | 87 | 1005.3 |
| 20260503042504 | 8 | 319 | 3.2 | 8.0 | 0.00 | 0.00 | 0.00 | 87 | 1005.4 |
| 20260503041504 | 8 | 328 | 3.2 | 8.0 | 0.00 | 0.00 | 0.00 | 86 | 1005.3 |
| 20260503040525 | 8 | 296 | 1.6 | 3.2 | 0.00 | 0.00 | 0.00 | 87 | 1005.3 |
| 20260503035504 | 7 | 6 | 1.6 | 4.8 | 0.00 | 0.00 | 0.00 | 87 | 1005.3 |
| 20260503034503 | 7 | 16 | 3.2 | 4.8 | 0.00 | 0.00 | 0.00 | 84 | 1005.2 |
| 20260503033505 | 7 | 5 | 3.2 | 3.2 | 0.00 | 0.00 | 0.00 | 87 | 1005.3 |
| 20260503032524 | 7 | 321 | 1.6 | 6.4 | 0.00 | 0.00 | 0.00 | 83 | 1005.3 |
| 20260503031504 | 7 | 285 | 3.2 | 4.8 | 0.00 | 0.00 | 0.00 | 85 | 1005.2 |
| 20260503030503 | 8 | 250 | 1.6 | 1.6 | 0.00 | 0.00 | 0.00 | 82 | 1005.1 |
| 20260503025505 | 8 | 254 | 1.6 | 3.2 | 0.00 | 0.00 | 0.00 | 78 | 1005.2 |
| 20260503024504 | 8 | 278 | 3.2 | 4.8 | 0.00 | 0.00 | 0.00 | 78 | 1005.2 |
| 20260503023504 | 8 | 212 | 1.6 | 3.2 | 0.00 | 0.00 | 0.00 | 73 | 1005.2 |
| 20260503022503 | 8 | 212 | 1.6 | 3.2 | 0.00 | 0.00 | 0.00 | 73 | 1005.2 |
| 20260503021505 | 8 | 212 | 1.6 | 3.2 | 0.00 | 0.00 | 0.00 | 75 | 1005.1 |
| 20260503020504 | 8 | 212 | 3.2 | 3.2 | 0.00 | 0.00 | 0.00 | 74 | 1005.0 |
| 20260503015504 | 8 | 212 | 3.2 | 3.2 | 0.00 | 0.00 | 0.00 | 72 | 1004.9 |
| 20260503014503 | 8 | 212 | 1.6 | 3.2 | 0.00 | 0.00 | 0.00 | 71 | 1004.9 |
| 20260503013503 | 8 | 212 | 1.6 | 3.2 | 0.00 | 0.00 | 0.00 | 75 | 1004.9 |
| 20260503012504 | 9 | 217 | 3.2 | 3.2 | 0.00 | 0.00 | 0.00 | 73 | 1004.9 |
| 20260503011504 | 9 | 217 | 3.2 | 4.8 | 0.00 | 0.00 | 0.00 | 63 | 1004.9 |
| 20260503010504 | 9 | 217 | 1.6 | 3.2 | 0.00 | 0.00 | 0.00 | 62 | 1004.9 |
| 20260503005504 | 9 | 216 | 1.6 | 1.6 | 0.00 | 0.00 | 0.00 | 62 | 1004.9 |
| 20260503004503 | 9 | 215 | 1.6 | 1.6 | 0.00 | 0.00 | 0.00 | 62 | 1005.1 |
| 20260503003524 | 9 | 197 | 1.6 | 3.2 | 0.00 | 0.00 | 0.00 | 63 | 1005.1 |
| 20260503002504 | 9 | 221 | 3.2 | 4.8 | 0.00 | 0.00 | 0.00 | 64 | 1005.4 |
| 20260503001504 | 9 | 217 | 3.2 | 4.8 | 0.00 | 0.00 | 0.00 | 64 | 1005.4 |
| 20260503000503 | 9 | 232 | 3.2 | 4.8 | 0.00 | 0.00 | 0.00 | 64 | 1005.5 |
| 20260502235505 | 8 | 224 | 3.2 | 4.8 | 0.00 | 0.00 | 0.00 | 65 | 1005.6 |
| 20260502234504 | 8 | 221 | 3.2 | 6.4 | 0.00 | 0.00 | 0.00 | 66 | 1005.6 |
| 20260502233504 | 8 | 214 | 4.8 | 6.4 | 0.00 | 0.00 | 0.00 | 66 | 1005.6 |
| 20260502232524 | 9 | 215 | 3.2 | 4.8 | 0.00 | 0.00 | 0.00 | 67 | 1005.6 |
| 20260502231503 | 9 | 212 | 3.2 | 4.8 | 0.00 | 0.00 | 0.00 | 67 | 1005.6 |
| 20260502230505 | 10 | 202 | 3.2 | 4.8 | 0.00 | 0.00 | 0.00 | 65 | 1005.6 |
| 20260502225504 | 10 | 209 | 3.2 | 4.8 | 0.00 | 0.00 | 0.00 | 64 | 1005.4 |
| 20260502224504 | 10 | 207 | 1.6 | 3.2 | 0.00 | 0.00 | 0.00 | 65 | 1005.7 |
| 20260502223503 | 10 | 197 | 3.2 | 4.8 | 0.00 | 0.00 | 0.00 | 66 | 1005.7 |
| 20260502222503 | 10 | 200 | 3.2 | 4.8 | 0.00 | 0.00 | 0.00 | 66 | 1005.8 |
| 20260502221505 | 10 | 210 | 3.2 | 4.8 | 0.00 | 0.00 | 0.00 | 67 | 1005.7 |
| 20260502220504 | 10 | 208 | 3.2 | 4.8 | 0.00 | 0.00 | 0.00 | 67 | 1005.8 |
| 20260502215504 | 10 | 206 | 3.2 | 4.8 | 0.00 | 0.00 | 0.00 | 65 | 1005.7 |
| 20260502214504 | 10 | 217 | 1.6 | 3.2 | 0.00 | 0.00 | 0.00 | 66 | 1005.8 |
| 20260502213503 | 10 | 198 | 1.6 | 4.8 | 0.00 | 0.00 | 0.00 | 66 | 1005.8 |
| 20260502212506 | 10 | 193 | 3.2 | 4.8 | 0.00 | 0.00 | 0.00 | 66 | 1005.7 |